Time,TemperatureF,DewpointF,PressureIn,WindDirection,WindDirectionDegrees,WindSpeedMPH,WindSpeedGustMPH,Humidity,HourlyPrecipIn,Conditions,Clouds,dailyrainin,SoftwareType,DateUTC
2013-08-31 00:00:00,73.8,72.0,29.93,SW,232,0.0,1.0,93,0.00,,,0.01,weatherlink.com 1.10,2013-08-31 04:00:00,
2013-08-31 00:15:00,74.0,72.0,29.92,SW,233,0.0,2.0,92,0.00,,,0.01,weatherlink.com 1.10,2013-08-31 04:15:00,
2013-08-31 00:30:00,74.1,71.0,29.92,SW,233,0.0,1.0,91,0.00,,,0.01,weatherlink.com 1.10,2013-08-31 04:30:00,
2013-08-31 00:45:00,73.3,71.0,29.92,SW,233,0.0,0.0,93,0.00,,,0.01,weatherlink.com 1.10,2013-08-31 04:45:00,
2013-08-31 01:00:00,72.7,71.0,29.92,SW,233,0.0,1.0,93,0.00,,,0.01,weatherlink.com 1.10,2013-08-31 05:00:00,
2013-08-31 01:15:00,72.8,71.0,29.92,SW,233,0.0,1.0,94,0.00,,,0.01,weatherlink.com 1.10,2013-08-31 05:15:00,
2013-08-31 01:45:00,72.4,71.0,29.91,SW,233,0.0,0.0,95,0.00,,,0.01,weatherlink.com 1.10,2013-08-31 05:45:00,
2013-08-31 02:00:00,72.6,71.0,29.91,SW,233,0.0,0.0,95,0.00,,,0.01,weatherlink.com 1.10,2013-08-31 06:00:00,
2013-08-31 02:15:00,72.4,71.0,29.90,SW,233,0.0,0.0,95,0.00,,,0.01,weatherlink.com 1.10,2013-08-31 06:15:00,
2013-08-31 02:30:00,72.0,71.0,29.91,SW,233,1.0,2.0,95,0.00,,,0.01,weatherlink.com 1.10,2013-08-31 06:30:00,
2013-08-31 02:45:00,71.1,70.0,29.91,SSE,152,1.0,2.0,96,0.00,,,0.01,weatherlink.com 1.10,2013-08-31 06:45:00,
2013-08-31 03:00:00,70.9,70.0,29.91,ESE,110,1.0,3.0,97,0.00,,,0.01,weatherlink.com 1.10,2013-08-31 07:00:00,
2013-08-31 03:15:00,70.8,70.0,29.91,SE,125,0.0,2.0,97,0.00,,,0.01,weatherlink.com 1.10,2013-08-31 07:15:00,
2013-08-31 03:30:00,71.0,70.0,29.90,SE,125,0.0,1.0,97,0.00,,,0.01,weatherlink.com 1.10,2013-08-31 07:30:00,
2013-08-31 03:45:00,71.0,70.0,29.90,SE,125,0.0,2.0,97,0.00,,,0.01,weatherlink.com 1.10,2013-08-31 07:45:00,
2013-08-31 04:00:00,71.0,70.0,29.90,SE,125,0.0,0.0,97,0.00,,,0.01,weatherlink.com 1.10,2013-08-31 08:00:00,
2013-08-31 04:15:00,70.9,70.0,29.90,SE,125,0.0,2.0,96,0.00,,,0.01,weatherlink.com 1.10,2013-08-31 08:15:00,
2013-08-31 04:30:00,70.6,70.0,29.89,SE,125,1.0,2.0,96,0.00,,,0.01,weatherlink.com 1.10,2013-08-31 08:30:00,
2013-08-31 04:45:00,70.2,69.0,29.89,SE,125,0.0,1.0,97,0.00,,,0.01,weatherlink.com 1.10,2013-08-31 08:45:00,
2013-08-31 05:00:00,70.0,69.0,29.89,SE,125,0.0,0.0,97,0.00,,,0.01,weatherlink.com 1.10,2013-08-31 09:00:00,
2013-08-31 05:15:00,70.1,69.0,29.89,SE,125,0.0,0.0,97,0.00,,,0.01,weatherlink.com 1.10,2013-08-31 09:15:00,
2013-08-31 05:30:00,69.8,69.0,29.89,SE,125,0.0,1.0,97,0.00,,,0.00,weatherlink.com 1.10,2013-08-31 09:30:00,
2013-08-31 05:45:00,69.7,69.0,29.89,SE,125,0.0,1.0,97,0.00,,,0.00,weatherlink.com 1.10,2013-08-31 09:45:00,
2013-08-31 06:00:00,69.5,69.0,29.90,SE,125,0.0,0.0,97,0.00,,,0.00,weatherlink.com 1.10,2013-08-31 10:00:00,
2013-08-31 06:15:00,69.5,69.0,29.90,SE,125,0.0,2.0,98,0.00,,,0.00,weatherlink.com 1.10,2013-08-31 10:15:00,
2013-08-31 06:30:00,69.3,69.0,29.90,SE,125,0.0,1.0,97,0.00,,,0.00,weatherlink.com 1.10,2013-08-31 10:30:00,
2013-08-31 06:45:00,69.2,69.0,29.89,SE,125,0.0,1.0,98,0.00,,,0.00,weatherlink.com 1.10,2013-08-31 10:45:00,
2013-08-31 07:00:00,68.7,68.0,29.89,SE,134,0.0,3.0,97,0.00,,,0.00,weatherlink.com 1.10,2013-08-31 11:00:00,
2013-08-31 07:15:00,68.8,68.0,29.90,ENE,77,0.0,2.0,98,0.00,,,0.00,weatherlink.com 1.10,2013-08-31 11:15:00,
2013-08-31 07:30:00,68.5,68.0,29.90,ENE,77,0.0,0.0,98,0.00,,,0.00,weatherlink.com 1.10,2013-08-31 11:30:00,
2013-08-31 07:45:00,68.6,68.0,29.91,ENE,77,0.0,1.0,98,0.00,,,0.00,weatherlink.com 1.10,2013-08-31 11:45:00,
2013-08-31 08:01:00,69.2,69.0,29.91,ENE,77,0.0,2.0,98,0.00,,,0.00,weatherlink.com 1.10,2013-08-31 12:01:00,
2013-08-31 08:16:00,70.3,69.0,29.91,ENE,77,0.0,1.0,97,0.00,,,0.00,weatherlink.com 1.10,2013-08-31 12:16:00,
2013-08-31 08:31:00,71.6,70.0,29.91,ESE,104,0.0,2.0,95,0.00,,,0.00,weatherlink.com 1.10,2013-08-31 12:31:00,
2013-08-31 08:46:00,72.6,71.0,29.91,SE,140,1.0,3.0,93,0.00,,,0.00,weatherlink.com 1.10,2013-08-31 12:46:00,
2013-08-31 09:01:00,73.5,71.0,29.91,SE,144,0.0,1.0,92,0.00,,,0.00,weatherlink.com 1.10,2013-08-31 13:01:00,
2013-08-31 09:16:00,74.9,72.0,29.92,SE,144,1.0,4.0,90,0.00,,,0.00,weatherlink.com 1.10,2013-08-31 13:16:00,
2013-08-31 09:31:00,75.5,72.0,29.92,SE,136,0.0,2.0,89,0.00,,,0.00,weatherlink.com 1.10,2013-08-31 13:31:00,
2013-08-31 09:46:00,76.2,72.0,29.92,SSE,149,1.0,5.0,87,0.00,,,0.00,weatherlink.com 1.10,2013-08-31 13:46:00,
2013-08-31 10:01:00,76.5,73.0,29.92,SSW,213,3.0,4.0,88,0.00,,,0.00,weatherlink.com 1.10,2013-08-31 14:01:00,
2013-08-31 10:16:00,77.2,73.0,29.92,SE,144,2.0,4.0,86,0.00,,,0.00,weatherlink.com 1.10,2013-08-31 14:16:00,
2013-08-31 10:31:00,77.8,73.0,29.92,South,189,5.0,6.0,84,0.00,,,0.00,weatherlink.com 1.10,2013-08-31 14:31:00,
2013-08-31 10:46:00,78.5,73.0,29.91,South,183,2.0,5.0,83,0.00,,,0.00,weatherlink.com 1.10,2013-08-31 14:46:00,
2013-08-31 11:01:00,78.8,73.0,29.91,WNW,290,4.0,5.0,83,0.00,,,0.00,weatherlink.com 1.10,2013-08-31 15:01:00,
2013-08-31 11:16:00,79.3,73.0,29.92,WNW,301,0.0,5.0,81,0.00,,,0.00,weatherlink.com 1.10,2013-08-31 15:16:00,
2013-08-31 11:31:00,80.3,73.0,29.92,WSW,254,3.0,4.0,79,0.00,,,0.00,weatherlink.com 1.10,2013-08-31 15:31:00,
2013-08-31 11:46:00,81.9,74.0,29.91,SW,222,1.0,5.0,77,0.00,,,0.00,weatherlink.com 1.10,2013-08-31 15:46:00,
2013-08-31 12:01:00,81.6,73.0,29.91,SW,234,3.0,7.0,76,0.00,,,0.00,weatherlink.com 1.10,2013-08-31 16:01:00,
2013-08-31 12:16:00,82.7,74.0,29.90,WNW,286,1.0,6.0,74,0.00,,,0.00,weatherlink.com 1.10,2013-08-31 16:16:00,
2013-08-31 12:31:00,82.9,73.0,29.90,WSW,247,0.0,5.0,71,0.00,,,0.00,weatherlink.com 1.10,2013-08-31 16:31:00,
2013-08-31 12:46:00,84.2,74.0,29.89,South,180,0.0,4.0,71,0.00,,,0.00,weatherlink.com 1.10,2013-08-31 16:46:00,
2013-08-31 13:01:00,83.7,74.0,29.89,SSW,212,3.0,5.0,72,0.00,,,0.00,weatherlink.com 1.10,2013-08-31 17:01:00,
2013-08-31 13:16:00,84.1,75.0,29.88,SSW,192,4.0,6.0,73,0.00,,,0.00,weatherlink.com 1.10,2013-08-31 17:16:00,
2013-08-31 13:31:00,84.4,74.0,29.88,SW,233,2.0,7.0,72,0.00,,,0.00,weatherlink.com 1.10,2013-08-31 17:31:00,
2013-08-31 13:46:00,84.3,75.0,29.86,SSW,208,5.0,8.0,74,0.00,,,0.00,weatherlink.com 1.10,2013-08-31 17:46:00,
2013-08-31 14:01:00,84.7,74.0,29.86,NW,305,4.0,8.0,70,0.00,,,0.00,weatherlink.com 1.10,2013-08-31 18:01:00,
2013-08-31 14:17:00,85.5,74.0,29.86,WSW,247,3.0,7.0,68,0.00,,,0.00,weatherlink.com 1.10,2013-08-31 18:17:00,
2013-08-31 14:32:00,86.4,75.0,29.86,SSW,212,4.0,8.0,68,0.00,,,0.00,weatherlink.com 1.10,2013-08-31 18:32:00,
2013-08-31 14:47:00,85.3,74.0,29.85,WNW,286,3.0,7.0,68,0.00,,,0.00,weatherlink.com 1.10,2013-08-31 18:47:00,
2013-08-31 15:02:00,85.7,74.0,29.84,West,271,2.0,7.0,69,0.00,,,0.00,weatherlink.com 1.10,2013-08-31 19:02:00,
2013-08-31 15:17:00,85.4,74.0,29.84,SW,221,1.0,8.0,68,0.00,,,0.00,weatherlink.com 1.10,2013-08-31 19:17:00,
2013-08-31 15:32:00,85.2,74.0,29.84,SSW,200,1.0,9.0,68,0.00,,,0.00,weatherlink.com 1.10,2013-08-31 19:32:00,
2013-08-31 15:47:00,83.3,73.0,29.87,NNE,31,9.0,15.0,71,0.00,,,0.00,weatherlink.com 1.10,2013-08-31 19:47:00,
2013-08-31 15:59:00,-999.0,-99.9,0.00,North,-999,-999.0,-999.0,-999,0.00,,,0.00,weatherlink.com 1.10,2013-08-31 19:59:00,
2013-08-31 16:13:00,70.4,-99.9,29.86,West,264,1.0,2.0,-999,0.00,,,0.00,weatherlink.com 1.10,2013-08-31 20:13:00,
2013-08-31 16:28:00,70.3,68.0,29.86,NW,314,3.0,4.0,93,0.01,,,0.01,weatherlink.com 1.10,2013-08-31 20:28:00,
2013-08-31 16:43:00,70.5,69.0,29.87,NW,309,3.0,8.0,96,0.01,,,0.01,weatherlink.com 1.10,2013-08-31 20:43:00,
2013-08-31 16:58:00,70.8,70.0,29.87,NNW,347,2.0,5.0,96,0.01,,,0.01,weatherlink.com 1.10,2013-08-31 20:58:00,
2013-08-31 17:13:00,70.8,70.0,29.87,SSE,160,2.0,6.0,96,0.01,,,0.01,weatherlink.com 1.10,2013-08-31 21:13:00,
2013-08-31 17:28:00,70.7,70.0,29.86,SE,140,2.0,8.0,96,0.04,,,0.05,weatherlink.com 1.10,2013-08-31 21:28:00,
2013-08-31 17:43:00,71.0,70.0,29.86,SSE,149,0.0,2.0,97,0.04,,,0.05,weatherlink.com 1.10,2013-08-31 21:43:00,
2013-08-31 17:58:00,71.0,70.0,29.86,ESE,102,0.0,1.0,96,0.04,,,0.05,weatherlink.com 1.10,2013-08-31 21:58:00,
2013-08-31 18:13:00,72.1,71.0,29.86,SW,222,2.0,3.0,96,0.04,,,0.05,weatherlink.com 1.10,2013-08-31 22:13:00,
2013-08-31 18:28:00,73.4,71.0,29.85,WNW,295,5.0,6.0,92,0.00,,,0.05,weatherlink.com 1.10,2013-08-31 22:28:00,
2013-08-31 18:43:00,73.8,71.0,29.85,NW,310,3.0,5.0,92,0.00,,,0.05,weatherlink.com 1.10,2013-08-31 22:43:00,
2013-08-31 18:58:00,74.4,72.0,29.85,NW,313,3.0,6.0,91,0.00,,,0.05,weatherlink.com 1.10,2013-08-31 22:58:00,
2013-08-31 19:13:00,74.8,72.0,29.85,NW,319,0.0,2.0,91,0.00,,,0.05,weatherlink.com 1.10,2013-08-31 23:13:00,
2013-08-31 19:28:00,74.5,72.0,29.86,NW,319,0.0,1.0,91,0.00,,,0.05,weatherlink.com 1.10,2013-08-31 23:28:00,
2013-08-31 19:43:00,73.4,71.0,29.85,NW,319,0.0,1.0,93,0.00,,,0.05,weatherlink.com 1.10,2013-08-31 23:43:00,
2013-08-31 19:58:00,72.6,71.0,29.86,NW,324,0.0,3.0,94,0.00,,,0.05,weatherlink.com 1.10,2013-08-31 23:58:00,
2013-08-31 20:13:00,72.2,71.0,29.86,NW,324,0.0,1.0,95,0.00,,,0.05,weatherlink.com 1.10,2013-09-01 00:13:00,
2013-08-31 20:28:00,71.7,71.0,29.88,NW,324,0.0,2.0,96,0.00,,,0.05,weatherlink.com 1.10,2013-09-01 00:28:00,
2013-08-31 20:43:00,71.2,70.0,29.87,NW,324,0.0,2.0,96,0.00,,,0.05,weatherlink.com 1.10,2013-09-01 00:43:00,
2013-08-31 20:58:00,71.0,70.0,29.87,NW,324,0.0,2.0,97,0.00,,,0.05,weatherlink.com 1.10,2013-09-01 00:58:00,
2013-08-31 21:14:00,70.8,70.0,29.88,NW,324,0.0,1.0,97,0.00,,,0.05,weatherlink.com 1.10,2013-09-01 01:14:00,
2013-08-31 21:28:00,70.7,70.0,29.88,NE,49,0.0,3.0,97,0.00,,,0.05,weatherlink.com 1.10,2013-09-01 01:28:00,
2013-08-31 21:44:00,70.5,70.0,29.88,NE,49,0.0,2.0,97,0.00,,,0.05,weatherlink.com 1.10,2013-09-01 01:44:00,
2013-08-31 21:59:00,70.2,69.0,29.88,NE,49,2.0,2.0,97,0.00,,,0.05,weatherlink.com 1.10,2013-09-01 01:59:00,
2013-08-31 22:14:00,69.6,69.0,29.88,SSE,153,0.0,3.0,97,0.00,,,0.05,weatherlink.com 1.10,2013-09-01 02:14:00,
2013-08-31 22:29:00,69.7,69.0,29.87,SSE,147,0.0,2.0,98,0.00,,,0.05,weatherlink.com 1.10,2013-09-01 02:29:00,
2013-08-31 22:44:00,69.5,69.0,29.87,ESE,106,0.0,2.0,98,0.00,,,0.05,weatherlink.com 1.10,2013-09-01 02:44:00,
2013-08-31 22:59:00,68.9,68.0,29.87,ESE,106,0.0,1.0,98,0.00,,,0.05,weatherlink.com 1.10,2013-09-01 02:59:00,
2013-08-31 23:14:00,69.0,69.0,29.88,South,178,0.0,2.0,98,0.00,,,0.05,weatherlink.com 1.10,2013-09-01 03:14:00,
2013-08-31 23:29:00,69.2,69.0,29.87,South,178,0.0,1.0,98,0.00,,,0.05,weatherlink.com 1.10,2013-09-01 03:29:00,
2013-08-31 23:44:00,69.0,69.0,29.87,South,178,0.0,1.0,98,0.00,,,0.05,weatherlink.com 1.10,2013-09-01 03:44:00,
2013-08-31 23:59:00,68.9,69.0,29.88,South,178,0.0,2.0,99,0.00,,,0.05,weatherlink.com 1.10,2013-09-01 03:59:00,